Home > Weather > Lansing > Past weeks

Flag for USA Past Weather in Lansing, Michigan, USA — Yesterday and Last 2 Weeks

Now
65 °F

Clear.


Feels Like: 65 °F
Forecast: 66 / 90 °F
Wind: No wind

Location: Capital City Airport

Current Time: Jul 27, 2016 at 5:50:12 AM

Latest Report: Jul 27, 2016 at 4:53 AM


Visibility: 10 mi

Pressure: 29.99 "Hg

Humidity: 91%

Dew Point: 62 °F

Location of LansingLocation

Past Weather in Lansing — Graph

°F

Lansing Temperature Yesterday

Maximum temperature yesterday: 87 °F (at 3:53 PM)
Minimum temperature yesterday: 63 °F (at 3:53 AM)
Average temperature yesterday: 75 °F

High & Low Weather Summary for the Past Weeks

 TemperatureHumidityPressure
High92 °F (Jul 23, 3:53 PM)93% (Jul 13, 3:53 AM)30.25 "Hg (Jul 13, 3:53 AM)
Low54 °F (Jul 17, 5:53 AM)33% (Jul 20, 4:53 PM)29.76 "Hg (Jul 14, 12:53 AM)
Average76 °F66%30.00 "Hg
* Reported Jul 12 3:53 AM — Jul 27 3:53 AM, Lansing, Weather by CustomWeather, © 2016

Note: Actual official high and low records may vary slightly from our data, if they occured in-between our weather recording intervals... More about our weather records

Advertising

Lansing Weather History for the Previous 24 Hours

Scroll right to see more
 ConditionsComfort  
Time TempWeatherWind HumidityBarometerVisibility
3:53 AM
Wed, Jul 27
67 °FClear.No wind85%29.98 "Hg10 mi
2:53 AM69 °FClear.No wind81%29.98 "Hg10 mi
1:53 AM68 °FClear.3 mph84%29.99 "Hg10 mi
12:53 AM69 °FClear.No wind84%29.99 "Hg10 mi
11:53 PM
Tue, Jul 26
72 °FClear.No wind76%29.99 "Hg10 mi
10:53 PM74 °FClear.3 mph71%30.00 "Hg10 mi
9:53 PM77 °FSunny.6 mph64%29.99 "Hg10 mi
8:53 PM80 °FSunny.6 mph56%29.99 "Hg10 mi
7:53 PM84 °FSunny.6 mph48%29.98 "Hg10 mi
6:53 PM85 °FSunny.7 mph45%29.98 "Hg10 mi
5:53 PM86 °FPassing clouds.10 mph43%29.99 "Hg10 mi
4:53 PM86 °FScattered clouds.7 mph42%30.00 "Hg10 mi
3:53 PM87 °FSunny.8 mph39%30.01 "Hg10 mi
2:53 PM85 °FScattered clouds.N/A42%30.03 "Hg10 mi
1:53 PM85 °FSunny.6 mph45%30.03 "Hg10 mi
12:53 PM83 °FScattered clouds.N/A46%30.05 "Hg10 mi
11:53 AM81 °FSunny.5 mph51%30.06 "Hg10 mi
10:53 AM79 °FSunny.7 mph58%30.06 "Hg10 mi
9:53 AM76 °FSunny.No wind62%30.07 "Hg10 mi
8:53 AM74 °FSunny.No wind71%30.07 "Hg10 mi
7:53 AM68 °FSunny.No wind84%30.07 "Hg9 mi
6:53 AM63 °FClear.No wind93%30.06 "Hg9 mi
5:53 AM63 °FClear.No wind90%30.04 "Hg7 mi
Weather by CustomWeather, © 2016

See weather overviewHow to use our weather pages